Location: Delettes
(50.6178°N, 2.2123°E)
Time: 02:31:20
(UTC+00:00)

Cosmos 1602 - Pass Details

Date: 27 February 2020
Orbit: 514 x 535 km, 82.5° (Epoch: 03 April)

Event Time Altitude Azimuth Distance (km) Brightness Sun altitude
Rises 18:58:56 0° 185° (S) 2,652 7.3 -15.1°
Reaches altitude 10° 19:01:04 10° 184° (S) 1,764 6.4 -15.5°
Maximum altitude 19:04:56 79° 98° (E) 540 3.6 -16.1°
Drops below altitude 10° 19:08:49 10° 12° (NNE) 1,768 6.3 -16.7°
Sets 19:10:57 0° 12° (NNE) 2,658 7.3 -17.0°
